Three Rivers, MI

4:07 AM EDT on July 21, 2017 (GMT -0400)
Three Rivers Municipal-Haines

Weather History for KHAI - October, 2013

Change the Weather History Date:

Sunday, October 13, 2013

  Actual Average Record
Temperature  
Mean Temperature 54 °F -  
Max Temperature 65 °F 63 °F 86 °F (1975)
Min Temperature 42 °F 40 °F 24 °F (1977)
Degree Days  
Heating Degree Days 12    
Growing Degree Days 4 (Base 50)    
Moisture  
Dew Point 46 °F    
Average Humidity 75    
Maximum Humidity 97    
Minimum Humidity 42    
Precipitation  
Precipitation 0.00 in - - ()
Sea Level Pressure  
Sea Level Pressure 30.29 in    
Wind  
Wind Speed 4 mph (NW)    
Max Wind Speed 14 mph    
Max Gust Speed 20 mph    
Visibility 8 miles    
Events Fog    
Averages and records for this station are not official NWS values.
T = Trace of Precipitation, MM = Missing Value Source: NWS Daily Summary

Daily Weather History Graph

Daily Weather History Graph

Search for Another Location

Airport or City:

Trip Planner

Search our weather history database for the weather conditions in past years. The results will help you decide how hot, cold, wet, or windy it might be!

Date:

Astronomy

Oct. 13, 2013 Rise Set
Actual Time 7:52 AM EDT 7:03 PM EDT
Civil Twilight 7:24 AM EDT 7:31 PM EDT
Nautical Twilight 6:52 AM EDT 8:03 PM EDT
Astronomical Twilight 6:20 AM EDT 8:36 PM EDT
Moon 3:59 PM EDT (10/13) 1:56 AM EDT (10/13)
Length of Visible Light 12h 06m
Length of Day
11h 10m
Waxing Gibbous, 69% of the Moon is Illuminated
Oct 13
Waxing Gibbous
Oct 18
Full
Oct 26
Last Quarter
Nov 3
New
Nov 10
First Quarter

Hourly Weather History & Observations

Time (EDT) Temp. Dew Point Humidity Pressure Visibility Wind Dir Wind Speed Gust Speed Precip Events Conditions
12:14 AM 62.6 °F 60.6 °F 93% 30.13 in 3.0 mi Calm Calm - N/A   Overcast
12:35 AM 62.1 °F 60.3 °F 94% 30.13 in 4.0 mi WNW 3.5 mph - N/A   Overcast
12:55 AM 61.7 °F 59.7 °F 93% 30.14 in 4.0 mi WNW 4.6 mph - N/A   Mostly Cloudy
1:14 AM 60.8 °F 58.3 °F 91% 30.15 in 7.0 mi WNW 5.8 mph - N/A   Mostly Cloudy
1:35 AM 59.7 °F 56.3 °F 88% 30.16 in 10.0 mi WNW 5.8 mph - N/A   Scattered Clouds
1:54 AM 58.3 °F 55.0 °F 89% 30.17 in 10.0 mi WNW 6.9 mph - N/A   Clear
2:14 AM 57.4 °F 53.8 °F 88% 30.17 in 10.0 mi NW 5.8 mph - N/A   Clear
2:35 AM 56.3 °F 52.7 °F 88% 30.18 in 10.0 mi WNW 5.8 mph - N/A   Clear
2:54 AM 54.5 °F 50.9 °F 88% 30.19 in 10.0 mi NW 3.5 mph - N/A   Clear
3:14 AM 54.0 °F 50.5 °F 88% 30.19 in 10.0 mi Calm Calm - N/A   Clear
3:35 AM 53.2 °F 50.9 °F 92% 30.19 in 10.0 mi Calm Calm - N/A   Clear
3:54 AM 52.5 °F 50.2 °F 92% 30.20 in 5.0 mi Calm Calm - N/A   Clear
4:15 AM 50.7 °F 48.9 °F 94% 30.20 in 0.2 mi Calm Calm - N/A Fog Fog
4:35 AM 50.2 °F 48.6 °F 94% 30.22 in 0.8 mi Calm Calm - N/A   Mist
4:54 AM 50.9 °F 49.3 °F 94% 30.23 in 0.2 mi Calm Calm - N/A Fog Fog
5:15 AM 50.2 °F 48.7 °F 95% 30.23 in 7.0 mi Calm Calm - N/A   Clear
5:35 AM 49.5 °F 48.0 °F 95% 30.23 in 7.0 mi Calm Calm - N/A   Clear
5:54 AM 48.7 °F 47.5 °F 95% 30.24 in 0.5 mi Calm Calm - N/A Fog Fog
6:15 AM 48.6 °F 47.3 °F 95% 30.24 in 0.5 mi Calm Calm - N/A Fog Fog
6:34 AM 47.3 °F 45.7 °F 94% 30.26 in 0.5 mi Calm Calm - N/A Fog Fog
6:54 AM 46.6 °F 45.3 °F 95% 30.27 in 0.5 mi Calm Calm - N/A Fog Fog
7:15 AM 46.2 °F 45.0 °F 95% 30.27 in 0.8 mi Calm Calm - N/A   Mist
7:34 AM 45.1 °F 44.1 °F 96% 30.28 in 0.2 mi Calm Calm - N/A Fog Fog
7:54 AM 45.3 °F 44.2 °F 96% 30.28 in - Calm Calm - N/A   Unknown
8:15 AM 45.3 °F 44.4 °F 97% 30.29 in - Calm Calm - N/A   Unknown
8:34 AM 46.2 °F 45.3 °F 97% 30.29 in - Calm Calm - N/A   Unknown
8:55 AM 47.8 °F 46.8 °F 96% 30.30 in 7.0 mi Calm Calm - N/A   Clear
9:15 AM 50.4 °F 49.5 °F 97% 30.31 in 10.0 mi Calm Calm - N/A   Clear
9:34 AM 52.9 °F 51.3 °F 94% 30.31 in 10.0 mi Calm Calm - N/A   Clear
9:55 AM 55.0 °F 52.0 °F 89% 30.32 in 10.0 mi WNW 3.5 mph - N/A   Clear
10:15 AM 57.7 °F 50.7 °F 77% 30.32 in 10.0 mi Calm Calm - N/A   Clear
10:34 AM 58.6 °F 49.3 °F 71% 30.33 in 10.0 mi NW 6.9 mph - N/A   Clear
10:55 AM 60.1 °F 48.2 °F 65% 30.33 in 10.0 mi NW 9.2 mph - N/A   Clear
11:15 AM 60.8 °F 47.5 °F 62% 30.33 in 10.0 mi NNW 8.1 mph - N/A   Clear
11:34 AM 61.9 °F 47.1 °F 58% 30.33 in 10.0 mi NW 8.1 mph - N/A   Clear
11:55 AM 62.4 °F 45.1 °F 53% 30.34 in 10.0 mi NW 10.4 mph - N/A   Clear
12:14 PM 62.6 °F 46.4 °F 55% 30.34 in 10.0 mi West 8.1 mph - N/A   Clear
12:34 PM 63.5 °F 45.7 °F 52% 30.34 in 10.0 mi West 10.4 mph 18.4 mph N/A   Clear
12:55 PM 64.0 °F 45.9 °F 52% 30.34 in 10.0 mi NW 8.1 mph - N/A   Clear
1:14 PM 64.6 °F 44.2 °F 48% 30.33 in 10.0 mi NW 6.9 mph 16.1 mph N/A   Clear
1:34 PM 65.3 °F 41.7 °F 42% 30.33 in 10.0 mi NW 13.8 mph 19.6 mph N/A   Clear
1:55 PM 65.5 °F 43.0 °F 44% 30.33 in 10.0 mi NW 9.2 mph - N/A   Clear
2:14 PM 64.9 °F 41.9 °F 43% 30.32 in 10.0 mi NW 9.2 mph 17.3 mph N/A   Clear
2:35 PM 65.3 °F 42.4 °F 43% 30.32 in 10.0 mi NW 12.7 mph 18.4 mph N/A   Clear
2:55 PM 64.9 °F 42.4 °F 44% 30.32 in 10.0 mi WNW 12.7 mph - N/A   Clear
3:14 PM 64.4 °F 41.5 °F 43% 30.32 in 10.0 mi WNW 9.2 mph - N/A   Clear
3:35 PM 64.6 °F 41.4 °F 43% 30.32 in 10.0 mi WNW 11.5 mph 17.3 mph N/A   Clear
3:55 PM 63.9 °F 41.0 °F 43% 30.32 in 10.0 mi WNW 10.4 mph 16.1 mph N/A   Clear
4:14 PM 63.5 °F 39.7 °F 42% 30.32 in 10.0 mi NW 11.5 mph 16.1 mph N/A   Clear
4:35 PM 63.0 °F 41.7 °F 46% 30.32 in 10.0 mi NW 10.4 mph - N/A   Clear
4:54 PM 62.6 °F 41.2 °F 45% 30.33 in 10.0 mi WNW 12.7 mph - N/A   Clear
5:14 PM 61.5 °F 41.0 °F 47% 30.33 in 10.0 mi WNW 12.7 mph - N/A   Clear
5:35 PM 60.6 °F 42.1 °F 50% 30.33 in 10.0 mi NW 9.2 mph - N/A   Clear
5:54 PM 59.5 °F 42.1 °F 52% 30.34 in 10.0 mi NW 9.2 mph - N/A   Clear
6:14 PM 58.5 °F 41.0 °F 52% 30.34 in 10.0 mi NW 9.2 mph - N/A   Clear
6:35 PM 57.2 °F 41.5 °F 56% 30.34 in 10.0 mi NW 8.1 mph - N/A   Clear
6:54 PM 55.6 °F 42.3 °F 61% 30.35 in 10.0 mi NW 6.9 mph - N/A   Clear
7:15 PM 53.6 °F 42.3 °F 65% 30.35 in 10.0 mi NW 4.6 mph - N/A   Clear
7:35 PM 52.7 °F 42.3 °F 68% 30.35 in 10.0 mi NW 4.6 mph - N/A   Clear
7:54 PM 51.8 °F 42.1 °F 69% 30.36 in 10.0 mi Calm Calm - N/A   Clear
8:15 PM 50.9 °F 42.1 °F 72% 30.36 in 10.0 mi NW 3.5 mph - N/A   Clear
8:35 PM 49.1 °F 41.2 °F 74% 30.36 in 10.0 mi Calm Calm - N/A   Clear
8:54 PM 47.5 °F 40.5 °F 77% 30.37 in 10.0 mi NW 3.5 mph - N/A   Clear
9:15 PM 46.9 °F 40.6 °F 79% 30.37 in 10.0 mi Calm Calm - N/A   Clear
9:35 PM 47.3 °F 41.9 °F 82% 30.37 in 10.0 mi Calm Calm - N/A   Clear
9:54 PM 45.5 °F 41.0 °F 84% 30.37 in 10.0 mi Calm Calm - N/A   Clear
10:15 PM 45.0 °F 40.8 °F 85% 30.38 in 10.0 mi Calm Calm - N/A   Clear
10:34 PM 44.4 °F 41.0 °F 88% 30.38 in 10.0 mi Calm Calm - N/A   Clear
10:54 PM 43.3 °F 39.9 °F 88% 30.38 in 10.0 mi Calm Calm - N/A   Clear
11:15 PM 43.0 °F 40.1 °F 90% 30.38 in 10.0 mi Calm Calm - N/A   Clear
11:34 PM 42.8 °F 40.3 °F 91% 30.38 in 10.0 mi Calm Calm - N/A   Clear
11:55 PM 42.8 °F 40.5 °F 91% 30.39 in 10.0 mi Calm Calm - N/A   Clear